• Processing (Info)

  • MPEC 2015-T58 : 2015 TA25

    The following Minor Planet Electronic Circular may be linked-to from your own Web pages, but must not otherwise be redistributed electronically.

    A form allowing access to any MPEC is at the bottom of this page.


    Read MPEC 2015-T57 Read MPEC 2015-T59


    M.P.E.C. 2015-T58                                Issued 2015 Oct. 11, 14:24 UT
    
         The Minor Planet Electronic Circulars contain information on unusual
             minor planets and routine data on comets.  They are published
        on behalf of Division F of the International Astronomical Union by the
              Minor Planet Center, Smithsonian Astrophysical Observatory,
                              Cambridge, MA 02138, U.S.A.
    
                 Prepared using the Tamkin Foundation Computer Network
    
                                  MPC@CFA.HARVARD.EDU
                URL https://www.minorplanetcenter.net/    ISSN 1523-6714
    
                                       2015 TA25
    
    Observations:
         K15T25A  C2015 10 08.58679 03 52 39.172+01 30 54.15         20.3 wLET058F51
         K15T25A  C2015 10 08.59745 03 52 38.323+01 31 07.49         20.4 wLET058F51
         K15T25A* C2015 10 09.58243 03 51 23.456+01 52 16.71         20.3 wLET058F51
         K15T25A  C2015 10 09.59311 03 51 22.538+01 52 30.80         20.3 wLET058F51
         K15T25A  C2015 10 09.60377 03 51 21.615+01 52 44.93         20.3 wLET058F51
         K15T25A  C2015 10 09.61452 03 51 20.690+01 52 59.10         20.3 wLET058F51
         K15T25A KC2015 10 10.36236 03 50 19.42 +02 09 41.6          20.0 RqET058H36
         K15T25A KC2015 10 10.37458 03 50 18.30 +02 09 58.4          20.0 RqET058H36
         K15T25A KC2015 10 10.38679 03 50 17.18 +02 10 15.4          19.9 RqET058H36
         K15T25A KC2015 10 10.39824 03 50 16.17 +02 10 30.0          19.6 RqET058H36
         K15T25A KC2015 10 10.41023603 50 14.93 +02 10 47.6          20.0 VuET058H21
         K15T25A KC2015 10 10.41237703 50 14.76 +02 10 50.5          20.2 VuET058H21
         K15T25A KC2015 10 10.41426603 50 14.59 +02 10 53.5          20.4 VuET058H21
         K15T25A _C2015 10 10.58108603 50 00.204+02 14 48.93         19.5 RtET058568
         K15T25A _C2015 10 10.58216303 50 00.104+02 14 50.41         19.6 RtET058568
         K15T25A _C2015 10 10.58323803 50 00.003+02 14 51.89         19.5 RtET058568
         K15T25A KC2015 10 11.38236 03 48 48.45 +02 33 41.1          20.2 RoET058291
         K15T25A KC2015 10 11.38432 03 48 48.25 +02 33 43.9          20.2 RoET058291
         K15T25A KC2015 10 11.38627 03 48 48.03 +02 33 46.9          20.1 RoET058291
    
    Observer details:
    291 LPL/Spacewatch II.  Observer R. A. Mastaler.  1.8-m f/2.7 reflector + CCD.
    568 Mauna Kea.  Observers R. J. Wainscoat, L. Wells.  Measurers M. Micheli,
        R. J. Wainscoat.  3.6-m Canada-France-Hawaii Telescope + CCD.
    F51 Pan-STARRS 1, Haleakala.  Observers B. Gibson, T. Goggia, N. Primak,
        A. Schultz, M. Willman.  Measurers K. Chambers, S. Chastel, L. Denneau,
        H. Flewelling, M. Huber, E. Lilly, E. Magnier, R. Wainscoat, C. Waters,
        R. Weryk.  1.8-m Ritchey-Chretien + CCD.
    H21 Astronomical Research Observatory, Westfield.  Observers T. Linder,
        R. Holmes.  Measurers T. Linder, R. Holmes, L. Buzzi, S. Foglia.  0.76-m
        f/3.0 astrograph + CCD.
    H36 Sandlot Observatory, Scranton.  Observer G. Hug.  0.56-m reflector + CCD.
    
    Orbital elements:
    2015 TA25                                                Earth MOID = 0.1497 AU
    Epoch 2016 Jan. 13.0 TT = JDT 2457400.5                 MPC
    M 335.31614              (2000.0)            P               Q
    n   0.76017398     Peri.  123.19844     -0.87277476     -0.36608484
    a   1.1890334      Node    38.35218     +0.02922623     -0.69946063
    e   0.3795346      Incl.   31.35550     +0.48724741     -0.61378882
    P   1.30           H   19.7           G   0.15           U   8
    Residuals in seconds of arc
    151008 F51  0.0   0.0     151010 H36  0.4-  0.2-    151010 568  0.0   0.3-
    151008 F51  0.1-  0.1-    151010 H36  0.4-  0.0     151010 568  0.0   0.3-
    151009 F51  0.0   0.1+    151010 H36  0.2+  1.1-    151011 291  0.2+  0.0
    151009 F51  0.1+  0.1+    151010 H21  0.1-  0.2+    151011 291  0.1+  0.0
    151009 F51  0.0   0.1+    151010 H21  0.3+  0.1+    151011 291  0.3-  0.2+
    151009 F51  0.1+  0.1+    151010 H21  0.3+  0.5+
    151010 H36  0.4-  0.2-    151010 568  0.0   0.3-
    
    Ephemeris:
    2015 TA25                a,e,i = 1.19, 0.38, 31                  q = 0.7378
    Date    TT    R. A. (2000) Decl.     Delta      r     Elong.  Phase     V
    2015 09 11    03 56 14.6 -04 04 51   0.8272  1.5051   109.9    39.0    21.7
    ...
    2015 09 26    04 00 20.0 -01 47 43   0.6424  1.4497   122.0    35.9    21.0
    ...
    2015 10 04    03 57 04.3 +00 04 57   0.5478  1.4163   130.0    32.7    20.5
    ...
    2015 10 10    03 50 49.9 +02 01 39   0.4802  1.3895   137.1    29.3    20.1
    2015 10 11    03 49 23.4 +02 24 42   0.4693  1.3849   138.4    28.6    20.0
    2015 10 12    03 47 49.1 +02 48 56   0.4586  1.3803   139.7    27.9    19.9
    ...
    2015 10 18    03 35 14.7 +05 43 42   0.3973  1.3515   148.6    22.6    19.4
    ...
    2015 10 26    03 07 42.4 +11 15 43   0.3272  1.3110   163.3    12.6    18.6
    ...
    2015 11 10    01 28 07.6 +26 38 23   0.2541  1.2283   157.0    18.4    18.1
    
    A. U. Tomatic                (C) Copyright 2015 MPC           M.P.E.C. 2015-T58
    

    Read MPEC 2015-T57 Read MPEC 2015-T59


    MPEC number:

    Enter an MPEC number in one of the following forms:

    • 1997-B01 (the full form)
    • J97B01 (the packed version of the full form)
    • B01 (the abbreviated form)